Regional Weather Roundup
Issued by NWS

Home | Current Version | Previous Version | Text Only | Print | Product List | Glossary On
Versions: 1 2 3 4 5 6 7 8 9 10 11 12 13 14 15 16 17 18 19 20 21 22 23 24 25 26 27 28 29 30 31 32 33 34 35 36 37 38 39 40 41 42 43 44 45 46 47 48 49 50
000
ASUS43 KIND 030209
RWRIN

WEATHER ROUNDUP FOR INDIANA
NATIONAL WEATHER SERVICE INDIANAPOLIS IN
1000 PM EDT TUE JUN 02 2015

NOTE: "FAIR" INDICATES FEW OR NO CLOUDS BELOW 12,000 FEET WITH NO
SIGNIFICANT WEATHER AND/OR OBSTRUCTIONS TO VISIBILITY.

* - STATION DOES NOT REPORT WEATHER SUCH AS PRECIPITATION OR FOG.

+ - STATION NOT QUALITY CONTROLLED BY THE NATIONAL WEATHER SERVICE.
    USE DATA WITH CAUTION...ESPECIALLY DEWPOINT AND RELATIVE
    HUMIDITY OBSERVATIONS.

INZ001>003-010>013-019-020-030300-
NORTHWEST INDIANA

CITY           SKY/WX    TMP DP  RH WIND       PRES   REMARKS
GARY /AIRPORT/ PTCLDY    55  48  76 E8        30.11R
KNOX *+        CLEAR     61  52  72 SE3       30.10R
LA PORTE +     PTCLDY    60  50  70 NE5       30.11R
MICHIGAN CITY+ CLEAR     52  46  82 CALM      30.11S
MONTICELLO +   CLEAR     61  54  77 CALM      30.09S
RENSSELAER +   CLEAR     63  55  77 SE7       30.10R
VALPARAISO     CLEAR     56  49  77 NE3       30.10R

$$

LMZ046-743>745-030300-
SOUTHERN LAKE MICHIGAN

STATION/POSITION TIME  TEMP    WIND        PRES    WAVE
                       AIR SEA DIR/SP/G            HT
                 (UTC) (F)     (DEG/KT/KT) (MB)    (FT)
BURNS HARBOR     0200           70/  8/ 10 1020.0R
MICHIGAN CITY    0200   56      40/ 10/ 11   N/A
5NW MICH CITY    0200   56 56   80/  8/ 10   N/A     1

$$

INZ004-005-014>016-021>024-030300-
NORTH CENTRAL INDIANA

CITY           SKY/WX    TMP DP  RH WIND       PRES   REMARKS
GOSHEN         CLEAR     62  50  64 SE6       30.12R
LOGANSPORT +   CLEAR     55  52  88 CALM      30.11S
PERU/GRISSOM   PTCLDY    61  54  78 SE3       30.09S
ROCHESTER +    CLEAR     61  54  77 E3        30.11R
SOUTH BEND     CLEAR     66  49  54 SE6       30.11R
WARSAW +       CLEAR     59  50  72 E3        30.12R

$$

INZ006>009-017-018-025>027-030300-
NORTHEAST INDIANA

CITY           SKY/WX    TMP DP  RH WIND       PRES   REMARKS
ANGOLA *+      CLEAR     59  45  58 E7        30.14R
AUBURN +       CLEAR     57  45  62 E3        30.13S
FORT WAYNE     PTCLDY    58  50  75 E9        30.13R
HUNTINGTON +   CLEAR     58  52  79 E5        30.12R

$$

INZ028-029-035-036-043>045-051>053-030300-
WEST CENTRAL INDIANA

CITY           SKY/WX    TMP DP  RH WIND       PRES   REMARKS
CRAWFORDSVL +  CLEAR     58  49  73 E6        30.10S
GREENCASTLE +  CLEAR     59  50  72 SE6       30.10S
LAFAYETTE      CLEAR     58  51  78 E5        30.09S
TERRE HAUTE    CLEAR     64  56  75 E8        30.07R

$$

INZ030>032-037>040-046>048-054>057-064-065-030300-
CENTRAL INDIANA

CITY           SKY/WX    TMP DP  RH WIND       PRES   REMARKS
CP ATTERBURY + CLOUDY    59  54  82 CALM      30.12R HAZE
COLUMBUS       CLOUDY    59  50  72 E7        30.12R
FISHERS *+     CLOUDY    59  55  88 CALM      30.11S
FRANKFORT +    CLEAR     58  54  85 E6        30.12S
GREENWOOD *+   CLOUDY    61  50  67 E3        30.11S
INDIANAPOLIS   PTCLDY    60  50  69 E8        30.09S
-EAGLE CREEK   PTCLDY    59  51  75 E5        30.10S
KOKOMO *+      CLEAR     61  54  77 CALM      30.10S
MARION +       PTCLDY    58  53  81 CALM      30.11S
MT COMFORT *+  CLOUDY    61  50  67 CALM      30.11S
SHELBYVILLE    CLOUDY    63  53  70 CALM      30.10S
ZIONSVILLE +   CLOUDY    63  52  67 SE5       30.11S

$$

INZ033-034-041-042-049-050-058-059-030300-
EAST CENTRAL INDIANA

CITY           SKY/WX    TMP DP  RH WIND       PRES   REMARKS
MUNCIE         MOCLDY    62  53  72 SE3       30.11R

$$

INZ060-061-067>069-081>083-085>088-030300-
SOUTHWEST INDIANA

CITY           SKY/WX    TMP DP  RH WIND       PRES   REMARKS
EVANSVILLE     CLEAR     60  56  86 CALM      30.06F
HUNTINGBURG *+ CLEAR     63  55  77 SE3       30.07S
WASHINGTON +   PTCLDY    62  55  78 E6        30.06S

$$

INZ062-063-066-070>080-084-089>092-030300-
SOUTH CENTRAL AND SOUTHEAST INDIANA

CITY           SKY/WX    TMP DP  RH WIND       PRES   REMARKS
BLOOMINGTON    CLEAR     59  53  80 E9        30.09S
MADISON *+     CLOUDY    59  50  72 CALM      30.13S
NORTH VERNON + CLOUDY    59  54  82 E3        30.12S
SEYMOUR +      CLOUDY    63  54  72 E7        30.11R

$$




USA.gov is the U.S. government's official web portal to all federal, state and local government web resources and services.